Вернуться в каталог

FENGYUN 1C DEB

АктивенSSO
NORAD 29987·DEBRIS·🇨🇳 China

Запущен May 10, 1999 с Taiyuan Satellite Launch Center

Loading…

Ближайшие Пролёты (ближайшие 24 часа)

TLE

СвежийSource: Space-Track

Эпоха: Sep 12, 2026, 16:22 UTC

1 29987U 99025LM  26255.68201912  .00002042  00000-0  10186-2 0  9995
2 29987  98.8844 152.0795 0076580 171.4911 244.2705 14.16492733  2474

Отслеживайте FENGYUN 1C DEB в реальном времени с AllMySat

Download on the App Store